Location: ??
(31.9467°N, 34.8903°E)
Time: 18:24:45
(UTC+00:00)

Aureole 3 - Pass Details

Date: 29 October 2020
Orbit: 382 x 1231 km, 82.5° (Epoch: 30 November)

Event Time Altitude Azimuth Distance (km) Brightness Sun altitude
Rises 15:44:46 0° 200° (SSW) 2,529 7.1 -11.5°
Reaches altitude 10° 15:47:04 10° 209° (SSW) 1,560 6.2 -12.0°
Maximum altitude 15:50:08 36° 277° (W) 670 4.5 -12.7°
Drops below altitude 10° 15:52:57 10° 347° (NNW) 1,422 5.5 -13.2°
Sets 15:54:58 0° 356° (N) 2,265 6.4 -13.7°
